Time,TemperatureF,DewpointF,PressureIn,WindDirection,WindDirectionDegrees,WindSpeedMPH,WindSpeedGustMPH,Humidity,HourlyPrecipIn,Conditions,Clouds,dailyrainin,SolarRadiationWatts/m^2,SoftwareType,DateUTC
2013-11-12 00:02:00,29.0,27.0,-100.00,SW,223,2.0,5.0,93,0.00,,,0.00,0.000000,,2013-11-12 07:02:00,
2013-11-12 00:11:00,29.0,27.0,-100.00,SW,223,2.0,5.0,93,0.00,,,0.00,0.000000,,2013-11-12 07:11:00,
2013-11-12 00:42:00,29.0,27.0,-100.00,SW,226,3.0,5.0,94,0.00,,,0.00,0.000000,,2013-11-12 07:42:00,
2013-11-12 00:52:00,29.0,27.0,-100.00,SW,226,3.0,5.0,94,0.00,,,0.00,0.000000,,2013-11-12 07:52:00,
2013-11-12 01:02:00,29.0,27.0,-100.00,SW,226,3.0,5.0,94,0.00,,,0.00,0.000000,,2013-11-12 08:02:00,
2013-11-12 01:11:00,29.0,27.0,-100.00,SW,226,3.0,5.0,94,0.00,,,0.00,0.000000,,2013-11-12 08:11:00,
2013-11-12 01:42:00,29.0,28.0,-100.00,WNW,300,1.0,3.0,95,0.00,,,0.00,0.000000,,2013-11-12 08:42:00,
2013-11-12 01:52:00,29.0,28.0,-100.00,WNW,300,1.0,3.0,95,0.00,,,0.00,0.000000,,2013-11-12 08:52:00,
2013-11-12 02:02:00,29.0,28.0,-100.00,WNW,300,1.0,3.0,95,0.00,,,0.00,0.000000,,2013-11-12 09:02:00,
2013-11-12 02:11:00,29.0,28.0,-100.00,WNW,300,1.0,3.0,95,0.00,,,0.00,0.000000,,2013-11-12 09:11:00,
2013-11-12 02:42:00,29.0,28.0,-100.00,West,279,3.0,6.0,95,0.00,,,-99.99,0.000000,,2013-11-12 09:42:00,
2013-11-12 02:53:00,29.0,28.0,-100.00,West,279,3.0,6.0,95,0.00,,,-99.99,0.000000,,2013-11-12 09:53:00,
2013-11-12 03:03:00,29.0,28.0,-100.00,West,279,3.0,6.0,95,0.00,,,-99.99,0.000000,,2013-11-12 10:03:00,
2013-11-12 03:12:00,29.0,28.0,-100.00,West,279,3.0,6.0,95,0.00,,,-99.99,0.000000,,2013-11-12 10:12:00,
2013-11-12 03:42:00,31.0,28.0,-100.00,WNW,282,5.0,9.0,87,0.00,,,-99.99,0.000000,,2013-11-12 10:42:00,
2013-11-12 03:53:00,31.0,28.0,-100.00,WNW,282,5.0,9.0,87,0.00,,,-99.99,0.000000,,2013-11-12 10:53:00,
2013-11-12 04:02:00,31.0,28.0,-100.00,WNW,282,5.0,9.0,87,0.00,,,-99.99,0.000000,,2013-11-12 11:02:00,
2013-11-12 04:12:00,31.0,28.0,-100.00,WNW,282,5.0,9.0,87,0.00,,,-99.99,0.000000,,2013-11-12 11:12:00,
2013-11-12 05:42:00,31.0,27.0,-100.00,WNW,287,4.0,9.0,85,-99.99,,,0.00,0.000000,,2013-11-12 12:42:00,
2013-11-12 05:52:00,31.0,27.0,-100.00,WNW,287,4.0,9.0,85,-99.99,,,0.00,0.000000,,2013-11-12 12:52:00,
2013-11-12 06:01:00,31.0,27.0,-100.00,WNW,287,4.0,9.0,85,-99.99,,,0.00,0.000000,,2013-11-12 13:01:00,
2013-11-12 06:11:00,31.0,27.0,-100.00,WNW,287,4.0,9.0,85,-99.99,,,0.00,0.000000,,2013-11-12 13:11:00,
2013-11-12 06:42:00,31.0,26.0,-100.00,WNW,290,5.0,9.0,83,0.00,,,-99.99,0.000000,,2013-11-12 13:42:00,
2013-11-12 06:52:00,31.0,26.0,-100.00,WNW,290,5.0,9.0,83,0.00,,,-99.99,0.000000,,2013-11-12 13:52:00,
2013-11-12 07:02:00,31.0,26.0,-100.00,WNW,290,5.0,9.0,83,0.00,,,-99.99,0.000000,,2013-11-12 14:02:00,
2013-11-12 07:11:00,31.0,26.0,-100.00,WNW,290,5.0,9.0,83,0.00,,,-99.99,0.000000,,2013-11-12 14:11:00,
2013-11-12 07:42:00,31.0,27.0,-100.00,WNW,292,3.0,8.0,85,0.00,,,0.00,0.000000,,2013-11-12 14:42:00,
2013-11-12 07:52:00,31.0,27.0,-100.00,WNW,292,3.0,8.0,85,0.00,,,0.00,0.000000,,2013-11-12 14:52:00,
2013-11-12 08:02:00,31.0,27.0,-100.00,WNW,292,3.0,8.0,85,0.00,,,0.00,0.000000,,2013-11-12 15:02:00,
2013-11-12 08:11:00,31.0,27.0,-100.00,WNW,292,3.0,8.0,85,0.00,,,0.00,0.000000,,2013-11-12 15:11:00,
2013-11-12 08:44:00,31.0,27.0,-100.00,WNW,301,3.0,7.0,84,0.00,,,0.00,0.000000,,2013-11-12 15:44:00,
2013-11-12 08:53:00,31.0,27.0,-100.00,WNW,301,3.0,7.0,84,0.00,,,0.00,0.000000,,2013-11-12 15:53:00,
2013-11-12 09:03:00,31.0,27.0,-100.00,WNW,301,3.0,7.0,84,0.00,,,0.00,0.000000,,2013-11-12 16:03:00,
2013-11-12 09:12:00,31.0,27.0,-100.00,WNW,301,3.0,7.0,84,0.00,,,0.00,0.000000,,2013-11-12 16:12:00,
2013-11-12 09:42:00,32.0,27.0,-100.00,WNW,297,2.0,7.0,81,0.00,,,0.00,18.000000,,2013-11-12 16:42:00,
2013-11-12 09:53:00,32.0,27.0,-100.00,WNW,297,2.0,7.0,81,0.00,,,0.00,18.000000,,2013-11-12 16:53:00,
2013-11-12 10:02:00,32.0,27.0,-100.00,WNW,297,2.0,7.0,81,0.00,,,0.00,18.000000,,2013-11-12 17:02:00,
2013-11-12 10:12:00,32.0,27.0,-100.00,WNW,297,2.0,7.0,81,0.00,,,0.00,18.000000,,2013-11-12 17:12:00,
2013-11-12 10:42:00,35.0,27.0,-100.00,West,274,3.0,10.0,72,0.00,,,0.00,61.000000,,2013-11-12 17:42:00,
2013-11-12 10:52:00,35.0,27.0,-100.00,West,274,3.0,10.0,72,0.00,,,0.00,61.000000,,2013-11-12 17:52:00,
2013-11-12 11:01:00,35.0,27.0,-100.00,West,274,3.0,10.0,72,0.00,,,0.00,61.000000,,2013-11-12 18:01:00,
2013-11-12 11:12:00,35.0,27.0,-100.00,West,274,3.0,10.0,72,0.00,,,0.00,61.000000,,2013-11-12 18:12:00,
2013-11-12 11:42:00,43.0,30.0,-100.00,SSW,194,3.0,9.0,59,0.00,,,-99.99,183.000000,,2013-11-12 18:42:00,
2013-11-12 11:52:00,43.0,30.0,-100.00,SSW,194,3.0,9.0,59,0.00,,,-99.99,183.000000,,2013-11-12 18:52:00,
2013-11-12 12:01:00,43.0,30.0,-100.00,SSW,194,3.0,9.0,59,0.00,,,-99.99,183.000000,,2013-11-12 19:01:00,
2013-11-12 12:11:00,43.0,30.0,-100.00,SSW,194,3.0,9.0,59,0.00,,,-99.99,183.000000,,2013-11-12 19:11:00,
2013-11-12 12:42:00,52.0,30.0,-100.00,SSW,207,4.0,11.0,42,0.00,,,0.00,447.000000,,2013-11-12 19:42:00,
2013-11-12 12:52:00,52.0,30.0,-100.00,SSW,207,4.0,11.0,42,0.00,,,0.00,447.000000,,2013-11-12 19:52:00,
2013-11-12 13:01:00,52.0,30.0,-100.00,SSW,207,4.0,11.0,42,0.00,,,0.00,447.000000,,2013-11-12 20:01:00,
2013-11-12 15:54:00,57.0,33.0,-100.00,South,186,2.0,6.0,40,-99.99,,,0.00,141.000000,,2013-11-12 22:54:00,
2013-11-12 16:03:00,57.0,33.0,-100.00,South,186,2.0,6.0,40,-99.99,,,0.00,141.000000,,2013-11-12 23:03:00,
2013-11-12 18:42:00,48.0,36.0,-100.00,ESE,123,2.0,4.0,63,-99.99,,,0.00,10.000000,,2013-11-13 01:42:00,
2013-11-12 18:52:00,48.0,36.0,-100.00,ESE,123,2.0,4.0,63,-99.99,,,0.00,10.000000,,2013-11-13 01:52:00,
2013-11-12 19:01:00,48.0,36.0,-100.00,ESE,123,2.0,4.0,63,-99.99,,,0.00,10.000000,,2013-11-13 02:01:00,
2013-11-12 19:11:00,48.0,36.0,-100.00,ESE,123,2.0,4.0,63,-99.99,,,0.00,10.000000,,2013-11-13 02:11:00,
2013-11-12 19:42:00,44.0,35.0,-100.00,South,190,1.0,5.0,71,0.00,,,0.00,0.000000,,2013-11-13 02:42:00,
2013-11-12 19:52:00,44.0,35.0,-100.00,South,190,1.0,5.0,71,0.00,,,0.00,0.000000,,2013-11-13 02:52:00,
2013-11-12 20:02:00,44.0,35.0,-100.00,South,190,1.0,5.0,71,0.00,,,0.00,0.000000,,2013-11-13 03:02:00,
2013-11-12 20:11:00,44.0,35.0,-100.00,South,190,1.0,5.0,71,0.00,,,0.00,0.000000,,2013-11-13 03:11:00,
2013-11-12 20:14:00,42.0,34.0,-100.00,WNW,295,1.0,2.0,72,0.00,,,0.00,0.000000,,2013-11-13 03:14:00,
2013-11-12 20:45:00,42.0,34.0,-100.00,WNW,295,1.0,2.0,72,0.00,,,0.00,0.000000,,2013-11-13 03:45:00,
2013-11-12 20:54:00,42.0,34.0,-100.00,WNW,295,1.0,2.0,72,0.00,,,0.00,0.000000,,2013-11-13 03:54:00,
2013-11-12 21:04:00,42.0,34.0,-100.00,WNW,295,1.0,2.0,72,0.00,,,0.00,0.000000,,2013-11-13 04:04:00,
2013-11-12 21:43:00,40.0,34.0,-100.00,NNE,33,2.0,4.0,78,0.00,,,0.00,0.000000,,2013-11-13 04:43:00,
2013-11-12 21:53:00,40.0,34.0,-100.00,NNE,33,2.0,4.0,78,0.00,,,0.00,0.000000,,2013-11-13 04:53:00,
2013-11-12 22:03:00,40.0,34.0,-100.00,NNE,33,2.0,4.0,78,0.00,,,0.00,0.000000,,2013-11-13 05:03:00,
2013-11-12 22:13:00,40.0,34.0,-100.00,NNE,33,2.0,4.0,78,0.00,,,0.00,0.000000,,2013-11-13 05:13:00,
2013-11-12 22:43:00,39.0,33.0,-100.00,NE,34,1.0,3.0,80,0.00,,,0.00,0.000000,,2013-11-13 05:43:00,
2013-11-12 22:53:00,39.0,33.0,-100.00,NE,34,1.0,3.0,80,0.00,,,0.00,0.000000,,2013-11-13 05:53:00,
2013-11-12 23:03:00,39.0,33.0,-100.00,NE,34,1.0,3.0,80,0.00,,,0.00,0.000000,,2013-11-13 06:03:00,
2013-11-12 23:13:00,39.0,33.0,-100.00,NE,34,1.0,3.0,80,0.00,,,0.00,0.000000,,2013-11-13 06:13:00,
2013-11-12 23:42:00,40.0,33.0,-100.00,West,276,2.0,4.0,77,0.00,,,0.00,0.000000,,2013-11-13 06:42:00,
2013-11-12 23:52:00,40.0,33.0,-100.00,West,276,2.0,4.0,77,0.00,,,0.00,0.000000,,2013-11-13 06:52:00,